Dewpoint
36 37 37 37 37 37 37 38 38 37 35 34 34 34 34 34 35 35 35 35 35 35 35 35 36 36 35 35 34 34 33 33 33 34 35 34 32 31 30 30 30 30 30 30 29 29 28 29 29 29 29 30 30 30 30 30 30 30 30 30 30 29 29 29 29 29 29 28 28
38 38 38 39 38 38 37 37 38 37 36 35 35 35 34 34 34 35 35 35 36 36 36 36 36 35 34 34 34 33 33 33 33 33 33 32 31 30 30 30 30 30 30 29 29 28 27 28 28 29 29 29 29 29 29 29 29 30 30 29 29 29 29 29 29 28 28 28 28
37 37 37 36 35 35 35 35 35 35 36 36 36 36 35 35 35 35 35 36 36 36 36 35 34 34 34 33 33 33 33 33 34 33 32 31 30 30 30 30 29 29 29 29 27 27 27 27 28 29 29 29 28 28 28 29 29 30 29 29 29 29 29 29 29 28 28 28 28
35 35 35 34 34 34 34 34 35 35 36 37 36 36 37 37 36 36 36 35 35 34 34 33 32 32 33 33 32 32 32 34 34 33 31 30 29 29 29 29 29 28 27 26 26 26 26 26 27 28 28 27 27 28 28 28 29 29 29 29 29 29 29 28 28 28 28 28 28
34 34 34 34 34 34 34 34 35 35 36 36 36 35 35 35 35 34 34 33 33 34 34 33 32 33 33 32 31 31 31 31 34 32 29 29 29 29 29 28 28 27 26 26 26 25 25 26 26 27 27 27 28 28 28 29 29 29 29 29 28 28 28 28 28 28 28 28 28
32 33 33 33 33 33 34 34 34 34 34 34 33 33 33 33 32 32 32 32 32 33 34 35 34 34 33 31 30 30 29 29 29 29 28 28 28 28 28 27 26 26 25 25 25 25 25 25 26 27 28 29 28 28 29 29 29 28 28 27 27 27 27 27 27 27 28 28 28
32 33 33 33 33 33 33 33 33 33 32 32 32 31 31 31 32 32 32 32 32 33 34 34 32 31 30 29 29 29 29 28 28 28 27 27 27 27 27 26 26 25 25 25 25 25 25 25 26 27 28 30 29 28 28 28 28 27 26 26 26 26 26 26 27 27 27 27 27
33 34 33 33 33 34 33 33 33 32 32 32 32 32 32 32 32 32 32 32 32 32 33 32 30 29 29 29 28 28 28 27 27 27 27 27 27 27 26 26 26 25 25 25 25 25 25 25 26 26 26 27 27 27 27 26 26 25 25 25 26 26 26 26 26 27 27 27 27
34 34 34 34 34 34 34 34 33 32 32 32 32 33 33 32 32 32 32 32 33 33 32 31 30 29 29 28 28 27 27 27 27 27 27 26 27 27 26 26 26 25 25 25 25 25 25 25 26 26 26 26 26 26 25 25 25 25 25 25 26 26 26 26 26 27 27 27 27
33 34 34 34 35 35 35 34 34 33 32 33 33 34 35 36 34 32 32 32 32 32 30 30 29 29 28 28 27 27 27 27 27 26 26 27 28 27 26 26 26 25 25 25 25 25 25 25 25 25 25 25 25 25 25 25 25 25 25 26 27 27 27 27 27 27 28 28 28
33 33 34 34 35 35 35 34 34 33 32 32 32 33 34 35 33 33 33 32 31 30 29 29 29 28 28 28 28 28 28 27 27 26 26 27 27 27 26 26 26 25 25 25 25 24 25 25 25 25 25 25 25 25 25 25 25 25 26 26 27 27 27 28 28 28 28 29 29
33 33 34 34 34 34 34 33 33 33 32 31 31 31 31 32 32 33 32 31 30 30 29 29 29 29 28 28 28 28 28 27 26 26 27 27 27 27 26 26 26 26 25 25 24 24 25 25 25 25 25 25 25 25 25 25 26 26 26 27 27 28 28 29 29 29 29 29 29
33 33 33 34 34 34 33 33 32 32 32 31 31 31 31 32 33 32 31 30 30 30 29 29 29 29 29 29 28 28 27 26 26 27 27 28 28 27 27 27 26 26 25 25 25 25 25 25 25 25 25 25 25 26 26 26 26 27 27 28 28 29 29 29 29 29 30 30 30
33 33 33 33 33 33 33 33 33 32 32 32 31 31 31 31 33 32 31 30 30 29 29 29 29 30 30 29 28 28 27 27 27 27 28 28 28 28 27 27 26 26 25 25 25 25 25 25 25 25 25 25 25 26 26 26 27 27 28 28 29 29 29 30 30 30 30 30 31
32 32 33 33 33 33 33 33 33 33 33 32 32 31 31 31 32 33 32 30 29 29 29 29 29 29 29 29 28 28 28 28 28 28 28 28 28 27 27 27 26 26 26 25 25 25 25 25 25 25 25 26 26 26 27 27 27 28 28 29 29 29 30 30 31 31 31 31 31
32 32 32 32 32 32 32 32 33 33 33 32 32 31 31 31 31 32 32 31 30 29 29 28 28 27 27 29 29 29 29 28 28 28 28 28 28 27 27 27 27 26 26 26 25 25 25 25 25 25 26 26 26 27 27 28 28 29 29 29 29 30 30 31 32 32 32 32 32
31 31 32 32 32 32 32 32 32 33 32 32 32 32 31 31 31 32 33 32 30 29 28 27 27 27 27 28 29 29 29 29 28 28 28 28 28 28 27 27 27 27 26 26 25 25 25 25 25 26 26 27 27 28 28 29 29 29 29 29 30 30 31 32 33 33 33 33 33
31 31 31 32 32 32 32 32 32 32 32 32 32 32 31 31 30 30 31 31 29 28 28 27 27 27 27 27 27 28 29 29 29 29 29 28 28 27 27 27 27 27 26 25 25 25 25 26 26 26 27 27 28 28 29 29 29 30 30 30 31 31 31 32 33 33 33 33 34
31 31 31 32 32 32 32 33 32 32 32 32 31 31 31 30 29 29 28 28 29 29 28 27 27 27 27 27 27 28 29 29 29 29 29 28 28 27 27 26 26 26 25 25 25 25 26 26 26 27 27 28 28 29 29 29 30 30 30 31 31 32 32 32 33 33 34 34 35
30 31 31 32 32 32 33 33 33 32 32 31 31 31 31 30 29 28 28 27 28 28 28 27 27 27 27 27 27 28 28 29 29 28 28 28 27 27 26 26 26 26 25 25 25 25 26 26 27 27 28 29 29 29 29 30 30 30 31 31 31 32 32 33 34 34 34 35 35
30 31 31 32 32 32 32 32 32 32 32 32 31 31 31 29 29 28 28 28 28 28 28 27 27 27 27 27 27 27 28 29 29 28 28 27 27 27 27 27 27 26 26 26 26 26 26 27 27 28 28 29 29 30 30 30 30 31 31 32 32 33 34 35 36 36 36 36 37
30 31 31 32 32 32 32 32 31 31 31 32 31 31 30 29 28 28 27 28 28 28 28 28 27 27 27 27 27 27 28 29 28 28 27 27 27 28 28 28 27 27 26 26 26 26 27 27 28 28 29 29 30 30 31 31 32 32 32 33 34 35 36 38 38 38 38 38 38
30 31 31 31 32 33 34 32 31 31 31 31 31 30 29 29 28 28 27 27 28 28 28 27 27 27 27 27 27 27 27 28 27 28 28 27 27 27 27 27 27 26 26 26 27 27 28 29 29 29 30 30 31 31 32 32 33 34 34 35 37 38 39 39 39 39 39 39 38
30 30 31 31 32 32 32 31 31 31 31 31 31 30 29 29 28 27 27 27 27 27 26 26 26 26 27 27 27 28 28 28 29 29 29 28 28 27 27 27 27 27 27 27 29 31 32 32 32 32 33 33 33 33 33 34 35 36 38 39 40 40 39 39 39 39 39 39 38
30 31 31 31 31 31 31 31 31 31 31 31 30 29 29 28 28 27 27 27 27 26 26 26 26 27 27 28 29 29 29 29 29 29 29 29 28 28 27 27 27 27 27 29 35 38 38 37 36 35 35 34 34 34 35 36 38 40 41 42 41 40 40 39 38 38 38 37 36
29 30 31 30 31 31 31 31 31 31 31 30 29 29 28 28 27 27 27 27 27 26 26 27 26 29 31 31 30 29 29 29 29 29 29 28 28 27 27 27 27 26 28 33 37 38 38 38 38 38 37 36 36 37 38 39 41 42 42 42 41 40 39 38 37 36 35 34 34
29 30 30 30 30 31 31 30 30 30 30 29 29 28 28 27 27 26 27 27 27 27 27 28 28 31 34 33 31 30 30 30 29 29 28 28 27 27 27 27 27 27 29 35 38 38 38 39 39 39 39 38 39 40 41 42 43 43 43 42 40 39 38 36 35 35 34 34 34
29 29 30 30 30 30 30 30 30 30 29 29 29 28 27 27 27 27 27 27 27 28 29 29 31 32 32 31 30 30 30 29 29 29 28 27 27 27 27 27 27 29 33 38 39 39 39 39 40 40 40 40 41 42 43 43 43 43 42 39 38 37 35 34 34 34 34 34 34
29 29 30 30 30 30 30 30 30 30 29 29 28 28 27 27 27 27 28 28 29 29 30 30 32 32 31 31 30 30 29 29 29 29 28 27 27 27 27 28 28 31 35 40 39 39 39 39 40 40 41 40 41 42 43 43 43 41 38 37 36 34 34 33 34 34 34 34 34
29 29 30 30 30 30 30 30 30 29 29 28 28 28 28 28 28 28 29 29 29 30 31 32 31 31 30 30 30 29 29 29 29 29 28 27 28 28 29 32 31 32 35 40 39 39 39 39 40 40 40 40 41 42 42 42 40 38 37 35 34 34 34 34 33 33 33 34 34
29 29 30 30 30 30 30 30 29 29 29 28 28 28 28 29 29 29 29 29 30 32 33 32 30 30 30 29 29 29 29 29 29 29 29 28 30 32 31 30 29 31 35 39 39 39 39 39 39 39 39 39 40 41 40 39 38 36 35 35 36 36 36 35 34 33 33 33 33
29 29 30 31 31 30 30 29 29 29 29 29 29 29 29 29 29 29 29 29 31 31 31 30 30 29 29 29 29 29 29 29 29 29 30 30 30 29 29 30 29 31 35 39 39 39 38 38 39 39 39 38 40 40 39 37 36 36 37 38 38 38 37 36 35 34 33 33 33
29 29 30 30 30 30 29 29 29 29 29 29 29 29 29 29 29 28 28 30 31 30 30 30 30 30 30 30 30 30 30 30 31 32 33 34 31 30 29 30 29 32 37 39 39 38 38 38 38 38 38 38 40 39 38 37 38 38 39 39 38 38 36 35 34 34 34 34 34
29 29 30 30 31 30 29 29 29 28 29 29 29 29 29 29 29 29 29 32 32 31 31 31 31 31 31 30 30 30 31 33 33 31 30 29 29 28 29 29 29 33 38 39 38 38 38 38 39 38 38 38 39 39 39 39 40 40 39 39 38 37 35 34 34 34 34 34 34
29 30 30 30 30 29 29 29 28 29 29 29 30 29 29 28 29 29 31 34 34 32 30 30 30 30 29 29 29 30 31 32 31 30 29 29 29 29 30 30 30 34 38 39 38 38 38 38 38 38 38 38 39 40 41 42 41 39 38 37 36 35 34 34 34 34 34 34 34
30 30 30 30 29 29 29 29 28 29 29 30 30 29 29 28 28 29 31 35 34 32 30 29 29 29 29 29 29 31 32 31 30 30 30 31 30 30 29 29 29 34 38 39 38 38 38 38 38 38 38 38 41 42 42 41 38 37 35 34 33 34 34 34 34 35 35 35 36
30 30 30 30 30 29 29 28 29 29 30 30 29 29 29 29 29 29 30 34 32 30 30 29 29 30 30 31 31 31 31 31 31 30 31 33 32 31 29 29 29 32 36 38 38 38 38 38 38 38 38 39 41 42 40 38 36 34 33 32 32 33 34 35 35 36 36 36 38
29 30 31 30 30 30 29 28 29 29 30 29 29 28 28 28 29 29 31 35 32 31 30 30 30 30 31 31 31 31 31 31 32 32 32 32 31 31 30 30 29 31 35 38 38 38 38 38 38 38 38 39 41 40 38 35 34 33 32 32 33 34 34 36 36 37 37 37 40
30 30 31 31 31 30 29 29 29 29 29 29 29 28 28 28 29 30 33 35 32 31 31 31 31 31 31 33 33 33 32 31 32 32 32 30 30 33 34 32 29 31 34 37 38 38 38 38 38 37 38 39 40 38 36 34 33 32 33 33 34 35 35 36 37 38 38 38 42
30 30 30 30 30 30 29 29 29 29 29 29 29 28 28 29 31 33 34 33 31 30 30 31 31 31 33 36 34 33 31 31 30 30 31 32 32 35 37 33 29 29 32 37 38 38 38 37 37 37 38 39 39 38 36 34 33 33 33 34 35 35 36 37 37 38 38 38 40
30 30 31 31 30 30 30 30 29 29 28 28 29 29 31 33 33 33 32 30 30 30 30 31 31 31 32 35 34 32 30 30 30 30 31 33 32 34 34 31 29 28 30 34 37 38 37 37 37 37 38 38 39 39 38 35 34 33 34 34 35 36 36 37 38 38 38 38 40